Temp_Advection
nan nan nan nan nan nan nan nan nan nan nan nan nan nan nan nan nan nan nan nan nan nan
nan -0 -0 0 0 0 -0 -0 -0 0 0 0 0 0 0 0 -0 -0 -0 0 0 nan
nan 0 0 0 -0 -0 -0 -0 0 0 0 0 0 0 0 0 0 0 0 0 0 nan
nan 0 0 0 -0 -0 -0 0 0 0 0 0 0 0 0 0 0 0 0 0 -0 nan
nan 0 0 -0 -0 0 0 0 0 0 -0 -0 0 0 0 -0 0 -0 0 0 0 nan
nan 0 0 0 0 0 0 -0 0 0 0 -0 0 0 0 0 0 0 -0 -0 0 nan
nan 0 0 0 0 0 0 0 -0 0 0 0 0 0 0 0 0 0 -0 -0 -0 nan
nan 1 1 -0 1 1 0 0 0 0 0 0 0 0 0 -0 -0 -0 0 0 -0 nan
nan 1 0 0 1 0 0 0 0 0 0 0 0 0 0 0 -0 0 -0 -1 -0 nan
nan 1 0 0 0 0 -0 0 0 0 -0 0 0 0 0 0 0 1 -0 -1 -0 nan
nan -0 -0 0 0 0 0 0 0 0 0 0 -0 -0 0 1 0 -0 -0 0 0 nan
nan -0 0 -0 0 0 0 0 -0 -0 0 0 0 -0 -0 -0 0 0 -0 0 0 nan
nan 0 0 0 1 0 -0 0 0 0 -0 -0 -0 0 0 -0 -1 -0 -0 -1 -2 nan
nan nan nan nan nan nan nan nan nan nan nan nan nan nan nan nan nan nan nan nan nan nan
Wind_Speed
28 29 28 24 22 18 17 17 18 16 15 13 13 14 14 13 13 14 14 14 13 13
28 27 26 24 25 23 21 18 16 18 17 17 16 16 18 18 17 16 17 18 16 15
25 27 27 24 23 25 23 21 19 17 17 17 18 18 18 18 19 21 20 18 19 18
25 25 26 27 25 24 24 25 23 21 21 21 20 19 19 19 21 21 20 20 22 22
23 25 26 27 26 25 24 24 24 23 24 25 25 25 26 25 25 25 25 24 21 22
27 23 22 23 23 25 23 23 25 25 25 23 22 24 26 27 27 29 29 28 27 25
27 27 23 19 18 22 23 23 24 26 27 26 26 26 27 29 29 29 28 28 29 27
27 27 26 21 22 18 16 19 20 21 22 22 24 26 29 31 31 33 31 30 30 31
25 24 25 24 20 19 17 18 17 18 20 22 23 26 27 26 27 28 37 34 33 37
21 20 23 19 19 19 22 19 19 20 21 23 25 28 28 28 30 32 32 35 37 33
20 21 22 20 18 20 20 20 20 19 20 22 25 27 29 31 32 34 34 35 36 39
22 21 21 21 18 14 15 14 14 17 20 20 21 25 29 34 37 39 40 40 40 39
23 21 20 16 14 12 10 12 13 16 17 20 23 27 30 33 35 39 41 42 43 44
24 19 16 13 11 9 9 9 10 13 17 20 23 27 30 31 33 33 36 38 39 38
Wind_Direction
228 231 234 227 220 225 235 240 237 238 244 250 254 257 263 270 275 275 278 287 294 279
227 227 227 228 227 232 232 237 242 241 243 248 257 265 265 267 268 267 274 280 278 285
230 229 230 230 233 233 233 239 241 245 244 250 256 262 266 268 269 266 271 270 273 272
232 234 235 236 238 240 240 242 245 249 251 252 255 263 266 269 267 272 265 267 272 270
234 239 240 239 239 239 242 244 246 253 256 255 257 262 267 267 264 264 267 270 270 270
231 233 239 243 244 247 248 251 251 252 256 261 265 269 270 271 273 270 269 270 269 266
225 229 231 238 243 245 252 254 258 259 262 265 268 270 272 272 271 269 269 270 268 266
234 232 230 233 241 248 250 255 255 254 256 262 266 269 277 275 275 267 266 265 266 264
225 222 208 222 236 241 241 251 253 257 254 266 267 275 280 275 265 268 264 264 276 264
223 216 213 215 221 229 236 246 254 258 264 269 275 277 277 275 271 270 269 262 270 269
210 205 200 209 216 226 234 245 250 256 265 269 273 277 279 280 277 274 271 266 268 267
208 198 209 212 219 231 234 240 254 264 267 272 278 285 287 286 285 281 275 271 265 261
195 198 208 221 227 227 247 261 268 273 285 293 296 295 296 295 292 286 281 275 269 264
179 189 195 206 219 242 249 259 280 298 305 307 308 308 304 302 299 297 290 282 276 265
Height
1552 1555 1559 1562 1565 1568 1570 1573 1574 1576 1577 1578 1579 1579 1579 1580 1580 1580 1581 1581 1581 1580
1547 1551 1553 1557 1560 1563 1565 1568 1570 1571 1573 1574 1575 1575 1575 1576 1576 1576 1576 1576 1576 1576
1542 1546 1550 1553 1555 1558 1561 1563 1565 1567 1569 1570 1571 1571 1571 1571 1572 1571 1571 1571 1571 1571
1538 1542 1545 1548 1551 1553 1556 1558 1560 1562 1564 1565 1566 1567 1567 1567 1567 1566 1566 1566 1565 1566
1534 1538 1541 1543 1546 1549 1551 1554 1555 1557 1557 1558 1560 1561 1561 1561 1561 1561 1561 1561 1561 1560
1527 1531 1535 1539 1542 1544 1546 1548 1550 1551 1552 1553 1554 1555 1556 1556 1555 1555 1555 1555 1554 1555
1520 1525 1530 1533 1535 1538 1540 1543 1543 1545 1546 1547 1547 1547 1548 1548 1548 1548 1548 1548 1547 1547
1515 1518 1522 1527 1529 1532 1533 1536 1538 1538 1539 1540 1540 1540 1540 1541 1540 1540 1540 1539 1539 1540
1510 1513 1516 1519 1523 1526 1528 1531 1531 1532 1532 1533 1533 1532 1532 1531 1531 1530 1530 1530 1530 1530
1504 1510 1513 1515 1518 1520 1524 1525 1525 1525 1526 1526 1525 1523 1523 1522 1522 1521 1520 1520 1520 1520
1501 1506 1510 1512 1514 1516 1518 1518 1519 1519 1519 1519 1517 1515 1513 1511 1511 1509 1509 1509 1509 1509
1497 1503 1507 1508 1510 1510 1511 1512 1512 1513 1513 1511 1509 1506 1504 1502 1499 1497 1496 1496 1497 1497
1491 1497 1502 1503 1506 1508 1506 1506 1507 1507 1504 1502 1500 1498 1494 1491 1488 1484 1480 1479 1479 1482
1485 1494 1498 1501 1504 1504 1503 1503 1503 1501 1498 1495 1492 1488 1484 1480 1474 1471 1466 1464 1463 1466